EHI
0 0 0 0 1 2 2 3 2 1 0 0 0 0 0 0 0 0 0 0 0 0 0 0 0 0 0 0 0 0 0 0 0 0 0 0 0 0 0 0 0 0 0
0 0 0 0 0 1 1 2 2 1 0 0 0 0 0 0 0 0 0 0 0 0 0 0 0 0 0 0 0 0 0 0 0 0 0 0 0 0 0 0 0 0 0
0 0 0 0 0 0 0 1 1 1 0 0 0 0 0 0 0 0 0 0 0 0 0 0 0 0 0 0 0 0 0 0 0 0 0 0 0 0 0 0 0 0 0
0 0 0 0 0 0 0 0 0 1 1 0 0 0 0 0 0 0 0 0 0 0 0 0 0 0 0 0 0 0 0 0 0 0 0 0 0 0 0 0 0 0 0
0 0 0 0 0 0 0 0 0 0 0 0 0 0 0 0 0 0 0 0 0 0 0 0 0 0 0 0 0 0 0 0 0 0 0 0 0 0 0 0 0 0 0
0 0 0 0 0 0 0 0 0 0 0 0 0 0 0 0 0 0 0 0 0 0 0 0 0 0 0 0 0 0 0 0 0 0 0 0 0 0 0 0 0 0 0
0 0 0 0 0 0 0 0 0 0 0 0 0 0 0 0 0 0 0 0 0 0 0 0 0 0 0 0 0 0 0 0 0 0 0 0 0 0 0 0 0 0 0
0 0 0 0 0 0 0 0 0 0 0 0 0 0 0 0 0 0 0 0 0 0 0 0 0 0 0 0 0 0 0 0 0 0 0 0 0 0 0 0 0 0 0
0 0 0 0 0 0 0 0 0 0 0 0 0 0 0 0 0 0 0 0 0 0 0 0 0 0 0 0 0 0 0 0 0 0 0 0 0 0 0 0 0 0 0
0 0 0 0 0 0 0 0 0 0 0 0 0 0 0 0 0 0 0 0 0 0 0 0 0 0 0 0 0 0 0 0 0 0 0 0 0 0 0 0 0 0 0
0 0 0 0 0 0 0 0 0 0 0 0 0 0 0 0 0 0 0 0 0 0 0 0 0 0 0 0 0 0 0 0 0 0 0 0 0 0 0 0 0 0 0
0 0 0 0 0 0 0 0 0 0 0 0 0 0 0 0 0 0 0 0 0 0 0 0 0 0 0 0 0 0 0 0 0 0 0 0 0 0 0 0 0 0 0
0 0 0 0 0 0 0 0 0 0 0 0 0 0 0 0 0 0 0 0 0 0 0 0 0 0 0 0 0 0 0 0 0 0 0 0 0 0 0 0 0 0 0
0 0 0 0 0 0 0 0 0 0 0 0 0 0 0 0 0 0 0 0 0 0 0 0 0 0 0 0 0 0 0 0 0 0 0 0 0 0 0 0 0 0 0
0 0 0 0 0 0 0 0 0 0 0 0 0 0 0 0 0 0 0 0 0 0 0 0 0 0 0 0 0 0 0 0 0 0 0 0 0 0 0 0 0 0 0
0 0 0 0 0 0 0 0 0 0 0 0 0 0 0 0 0 0 0 0 0 0 0 0 0 0 0 0 0 0 0 0 0 0 0 0 0 0 0 0 0 0 0
0 0 0 0 0 0 0 0 0 0 0 0 0 0 0 0 0 0 0 0 0 0 0 0 0 0 0 0 0 0 0 0 0 0 0 0 0 0 0 0 0 0 0
0 0 0 0 0 0 0 0 0 0 0 0 0 0 0 0 0 0 0 0 0 0 0 0 0 0 0 0 0 0 0 0 0 0 0 0 0 0 0 0 0 0 0
0 0 0 0 0 0 0 0 0 0 0 0 0 0 0 0 0 0 0 0 0 0 0 0 0 0 0 0 0 0 0 0 0 0 0 0 0 0 0 0 0 0 0
0 0 0 0 0 0 0 0 0 0 0 0 0 0 0 0 0 0 0 0 0 0 0 0 0 0 0 0 0 0 0 0 0 0 0 0 0 0 0 0 0 0 0
0 0 0 0 0 0 0 0 0 0 0 0 0 0 0 0 0 0 0 0 0 0 0 0 0 0 0 0 0 0 0 0 0 0 0 0 0 0 0 0 0 0 0
0 0 0 0 0 0 0 0 0 0 0 0 0 0 0 0 0 0 0 0 0 0 0 0 0 0 0 0 0 0 0 0 0 0 0 0 0 0 0 0 0 0 0
0 0 0 0 0 0 0 0 0 0 0 0 0 0 0 0 0 0 0 0 0 0 0 0 0 0 0 0 0 0 0 0 0 0 0 0 0 0 0 0 0 0 0
0 0 0 0 0 0 0 0 0 0 0 0 0 0 0 0 0 0 0 0 0 0 0 0 0 0 0 0 0 0 0 0 0 0 0 0 0 0 0 0 0 0 0
0 0 0 0 0 0 0 0 0 0 0 0 0 0 0 0 0 0 0 0 0 0 0 0 0 0 0 0 0 0 0 0 0 0 0 0 0 0 0 0 0 0 0
0 0 0 0 0 0 0 0 0 0 0 0 0 0 0 0 0 0 0 0 0 0 0 0 0 0 0 0 0 0 0 0 0 0 0 0 0 0 0 0 0 0 0
Wind_Speed
2 2 1 1 1 1 1 1 1 2 2 2 2 3 3 3 3 3 3 6 8 10 11 11 11 11 12 12 12 11 11 10 10 10 9 9 8 8 7 7 7 6 6
2 1 1 2 2 2 1 1 2 2 2 2 3 3 4 3 3 4 3 4 7 8 10 11 11 12 12 12 11 11 11 11 10 10 10 10 10 9 9 8 8 8 7
2 2 1 2 2 2 2 1 2 1 2 2 3 3 3 3 3 4 4 3 4 6 9 11 12 11 11 11 12 12 11 11 11 11 10 10 10 10 10 9 10 10 9
3 2 2 2 2 2 2 2 1 1 2 2 2 3 3 3 3 4 3 3 3 3 5 9 10 10 11 11 11 12 11 11 11 11 11 11 11 11 11 10 10 10 10
3 2 2 2 3 2 2 2 1 1 2 2 3 3 2 3 3 3 3 4 4 4 3 5 8 9 9 10 11 11 11 10 10 11 11 11 11 11 12 12 12 12 11
3 2 2 3 3 2 2 2 2 2 2 2 3 3 3 3 3 3 3 3 3 4 3 3 3 5 7 7 9 9 10 8 8 9 10 10 11 11 12 12 13 13 12
3 2 2 3 3 2 3 3 2 2 2 2 2 3 3 3 3 2 2 2 2 2 1 2 2 2 2 4 6 7 8 8 7 8 9 9 10 11 12 12 12 13 13
3 2 2 2 2 2 3 3 2 1 2 2 1 2 3 3 2 2 1 1 1 1 1 1 1 1 1 1 2 4 6 7 8 8 8 9 10 10 11 11 11 11 13
3 2 2 2 2 2 2 2 2 1 2 2 1 1 1 2 3 2 2 1 1 1 1 1 1 1 1 1 1 2 4 6 8 9 9 9 10 10 11 11 11 11 10
3 2 2 2 2 2 2 2 2 2 1 2 2 1 2 2 2 3 2 2 2 1 2 2 1 2 1 1 2 2 3 5 8 9 9 9 10 10 11 11 11 11 11
2 2 2 2 2 2 2 2 2 2 2 2 2 2 2 2 3 3 4 3 2 2 2 2 1 1 1 1 2 2 3 5 7 9 10 10 10 10 11 11 11 11 11
2 2 2 2 2 2 2 2 2 3 3 3 2 2 2 2 2 3 4 4 4 3 2 1 1 1 1 1 2 3 4 5 7 9 10 10 10 10 11 11 11 11 11
2 3 2 2 2 2 2 2 2 3 3 3 3 3 3 3 3 3 4 4 4 3 2 1 1 1 1 1 2 4 4 6 7 9 10 10 9 9 10 11 11 11 10
3 3 2 2 3 3 3 2 2 3 2 2 3 3 3 3 3 3 3 3 4 4 2 2 1 1 1 1 3 4 4 6 7 8 9 9 9 8 8 9 10 10 9
3 3 2 3 3 3 3 2 2 3 2 2 3 3 3 3 3 3 3 3 4 5 5 2 1 1 1 1 3 3 3 6 7 7 7 7 7 7 8 8 8 8 8
3 3 3 3 3 3 3 2 2 3 3 3 2 3 3 2 2 2 2 3 3 4 5 2 1 2 2 3 4 3 3 6 6 7 7 6 6 6 7 7 6 7 7
3 3 3 3 3 3 3 2 3 3 3 3 2 2 3 3 2 2 2 2 3 3 5 4 2 2 2 3 4 3 3 3 3 6 7 7 7 6 6 6 6 7 7
3 3 3 3 3 3 3 3 4 3 3 3 3 3 3 3 3 3 3 3 3 3 4 6 3 2 3 3 3 4 4 3 3 5 6 6 6 6 6 6 6 6 6
3 3 3 3 4 4 3 3 4 4 3 3 3 3 3 3 3 3 3 3 3 3 3 4 4 2 2 2 3 4 4 3 4 5 5 5 5 6 6 6 5 6 6
3 3 4 4 4 4 4 4 3 4 4 3 3 3 4 4 4 4 3 4 3 3 3 3 3 3 2 2 2 3 4 3 3 3 4 4 5 6 6 6 6 6 6
4 4 4 4 4 4 4 4 4 3 4 4 4 4 4 5 6 4 3 3 3 3 3 3 3 3 3 2 2 2 4 4 4 2 2 3 3 3 3 5 5 5 6
4 4 4 4 4 4 6 7 5 3 3 4 4 4 4 5 5 6 7 6 4 4 4 3 3 4 4 3 3 3 3 3 4 2 2 4 2 3 3 2 5 6 5
4 4 4 4 5 6 8 8 7 3 3 4 4 4 4 4 4 4 5 6 6 7 6 4 4 5 4 4 4 4 4 4 4 3 3 4 2 3 3 3 6 6 5
4 4 4 5 5 6 8 8 7 3 3 4 4 4 4 4 4 4 3 3 4 4 5 3 4 4 4 4 4 4 4 4 4 2 2 3 3 3 4 3 5 5 5
4 4 4 4 5 6 8 8 6 2 3 4 4 4 4 4 6 6 3 3 4 4 5 5 5 5 6 6 4 2 3 3 3 2 1 2 3 3 3 3 3 5 6
5 4 4 4 4 5 7 7 6 2 3 3 3 3 5 5 6 6 3 3 4 4 3 3 3 4 4 4 4 3 2 3 3 3 1 1 2 2 3 2 2 2 3
Wind_Direction
39 21 5 2 348 337 311 296 294 295 288 281 272 262 252 246 244 242 244 242 243 248 249 245 238 233 231 228 227 227 226 227 228 223 223 223 226 230 234 236 239 241 244
37 20 8 0 345 327 303 279 276 274 272 271 273 269 266 258 246 244 240 241 240 243 247 248 247 242 239 236 232 229 225 225 226 225 226 228 228 231 234 236 239 243 247
29 18 9 356 335 328 321 304 296 286 284 281 276 274 269 263 256 247 241 238 241 244 245 248 250 248 243 241 240 239 233 229 227 227 228 230 230 231 233 237 241 245 248
25 21 14 348 333 336 331 315 304 294 286 283 281 280 276 268 261 252 246 241 239 245 247 249 251 253 252 248 247 246 240 233 228 229 231 232 233 234 235 239 243 246 249
20 26 11 345 340 344 338 323 316 299 293 299 288 280 273 268 267 262 251 246 239 238 243 248 246 249 253 253 251 252 250 243 232 230 231 233 235 238 241 243 244 247 250
15 20 11 355 351 351 347 337 318 317 295 300 297 292 277 266 261 259 256 253 239 236 243 254 252 253 253 256 257 256 258 253 242 235 234 236 237 241 245 247 249 249 250
10 18 8 357 357 355 343 339 329 328 327 319 317 311 290 260 255 257 254 254 251 244 245 264 263 260 262 253 257 261 263 262 258 251 243 241 241 244 246 250 252 251 251
359 5 6 352 354 347 348 350 343 328 330 352 344 325 320 320 302 274 270 259 274 275 264 275 266 257 260 262 279 269 267 267 266 263 259 251 247 247 250 253 255 257 254
350 349 347 345 345 343 331 335 328 320 312 325 330 272 285 284 313 305 292 290 308 316 306 309 301 290 288 279 285 289 286 280 277 272 272 269 260 256 256 257 259 260 261
341 340 342 340 335 333 320 313 325 307 288 294 298 272 258 278 288 303 308 308 303 292 292 298 287 273 278 277 284 318 307 287 279 276 275 277 276 270 267 264 266 265 264
331 337 335 332 326 317 309 307 307 295 280 266 271 281 278 269 251 262 282 295 300 280 276 266 254 272 280 278 272 299 304 293 287 282 278 278 281 281 279 278 274 271 270
319 328 330 330 320 313 305 299 293 286 279 273 270 263 261 262 259 257 268 282 286 279 279 274 266 276 269 274 292 304 296 294 292 289 285 281 283 285 285 281 280 278 274
302 309 321 315 311 306 306 304 301 294 286 278 270 268 265 266 268 262 266 278 281 283 271 263 252 261 298 301 298 304 292 292 290 287 285 287 290 291 291 289 286 284 282
277 292 297 301 301 304 308 308 302 297 294 283 281 276 273 272 268 261 257 267 282 282 266 260 275 273 305 305 310 304 291 296 290 289 287 289 295 298 297 294 290 290 288
275 284 285 291 296 298 294 293 286 287 287 280 277 278 274 276 278 273 265 254 258 275 275 259 267 302 308 299 309 296 294 305 300 296 295 296 298 300 298 293 293 290 290
271 278 282 283 291 294 292 287 284 285 285 282 278 281 284 283 283 278 273 267 256 257 270 270 269 294 303 315 316 302 291 307 307 304 299 299 298 299 298 297 298 299 296
263 267 270 274 279 283 286 281 278 284 280 285 289 285 287 289 285 281 272 268 266 260 266 279 267 281 281 291 302 300 292 286 291 302 299 302 298 294 293 295 298 300 298
256 257 261 266 271 276 274 270 276 278 272 276 280 280 285 290 284 281 275 268 264 261 259 273 280 279 272 280 293 296 303 303 286 298 299 300 298 298 297 295 297 298 299
252 256 253 257 264 268 267 264 263 267 266 267 270 269 277 281 284 287 283 274 268 267 258 259 274 277 278 284 295 294 293 291 298 301 301 296 297 305 304 302 302 302 301
239 248 251 253 257 261 261 260 261 264 266 266 265 263 267 265 266 271 276 279 274 268 262 259 265 273 276 276 281 294 302 302 297 302 302 305 303 306 302 298 299 301 299
238 241 247 255 257 255 254 253 253 257 258 265 269 267 267 268 267 269 273 276 278 275 267 262 264 270 272 280 282 284 290 304 290 284 297 292 290 281 285 288 291 292 299
242 239 242 249 256 259 266 266 260 247 250 256 267 272 277 276 277 280 282 279 272 267 266 261 265 268 275 270 269 273 280 296 294 294 302 294 277 271 273 262 287 293 297
240 244 247 249 254 260 268 268 262 247 239 248 256 263 275 279 284 281 285 291 288 280 268 256 256 262 270 262 262 265 265 270 267 282 304 286 287 280 283 291 299 296 299
237 243 248 248 255 263 266 266 266 245 238 249 252 255 261 274 276 279 281 282 280 280 277 265 246 258 261 258 250 259 263 273 273 274 271 277 290 283 296 290 295 292 298
240 242 247 245 251 263 265 262 263 225 242 256 259 258 258 265 279 285 284 280 286 293 296 288 289 294 286 279 270 257 262 269 280 283 276 267 289 297 289 279 289 306 309
238 240 247 243 246 256 260 256 253 220 241 259 264 261 265 270 280 288 277 270 279 287 297 306 309 314 310 299 284 249 242 253 265 273 264 277 284 315 306 281 272 287 297